Wind_Speed
37 36 36 37 36 36 37 37 39 38 39 36 34 36 36 36 36 36 37 37 37 39 40 42 43 44 45 47 49 51 52 52 52 54 56 54 52 51 51 51 50 50 49 49
37 36 37 38 36 36 37 38 39 40 39 37 38 37 37 36 36 36 36 37 38 39 40 41 42 43 45 46 49 50 51 53 52 54 56 54 52 51 51 52 51 50 50 49
37 37 40 39 35 35 36 36 38 39 38 38 38 37 37 38 37 36 37 38 39 40 41 40 41 42 44 46 48 50 51 52 53 54 55 56 54 54 53 52 52 52 51 51
39 38 40 36 34 35 36 35 36 37 37 36 36 36 35 36 36 35 35 37 39 40 42 42 42 43 44 45 47 49 50 52 54 55 54 56 56 54 54 54 52 52 51 51
40 40 40 36 34 35 37 36 35 35 35 36 36 35 34 35 36 36 35 36 37 39 40 42 42 43 44 44 46 47 48 50 53 55 55 55 55 54 53 53 53 52 52 51
40 41 41 36 35 35 37 36 34 35 35 35 36 36 34 35 35 35 34 35 36 38 39 40 41 42 43 43 45 46 48 48 50 53 55 55 54 53 53 53 52 53 52 50
40 42 41 36 36 36 37 36 35 36 36 36 36 36 36 35 35 35 35 35 36 37 38 40 40 40 41 42 44 46 47 48 49 51 52 54 54 53 53 53 53 52 52 50
39 41 39 37 37 37 37 37 37 37 37 37 36 36 36 36 36 35 36 36 36 36 37 38 39 41 42 42 43 45 46 47 48 50 51 52 53 53 53 54 53 51 51 51
40 40 38 38 38 38 39 39 38 37 37 36 36 36 36 36 36 36 35 35 36 36 37 38 39 40 41 42 42 43 44 45 46 49 50 51 51 52 52 52 52 51 51 50
40 38 37 38 39 39 39 39 39 37 36 36 35 35 35 35 35 35 34 35 36 35 36 37 38 39 40 41 42 42 43 44 45 47 48 49 50 50 51 51 51 51 51 50
39 36 37 37 38 38 39 38 38 37 37 36 35 34 34 34 34 34 34 35 36 36 36 36 36 37 38 39 40 40 41 43 44 46 47 48 48 48 49 50 50 50 50 50
37 35 38 38 37 37 37 37 36 36 36 36 35 34 34 33 33 33 33 34 35 36 37 36 36 36 36 37 38 39 39 40 42 43 45 46 47 47 47 49 50 49 49 50
36 36 37 37 36 36 36 35 34 34 34 34 34 34 34 34 33 33 33 34 35 35 36 36 36 35 35 35 37 38 38 39 41 42 43 44 45 45 45 46 47 48 47 49
35 35 36 35 35 35 34 34 33 33 32 31 32 32 32 32 32 32 33 34 34 35 35 36 36 36 36 36 36 36 37 39 40 42 42 42 42 43 44 45 44 44 45 45
34 35 35 34 34 34 33 33 33 32 31 30 30 30 31 31 31 31 32 32 33 34 34 35 35 36 36 36 36 36 36 37 39 41 42 42 41 42 43 43 42 42 43 43
34 34 34 33 33 32 32 32 32 31 30 30 30 30 31 31 31 31 31 32 33 33 34 34 35 35 36 36 36 35 35 36 38 39 41 41 41 41 42 42 41 40 40 39
34 33 32 32 31 31 31 31 30 29 29 29 29 29 30 30 30 30 31 32 32 33 34 34 34 35 35 35 35 35 35 36 37 38 39 41 41 40 40 39 39 39 38 38
32 31 31 31 31 31 31 30 29 29 29 29 28 28 29 29 30 30 31 31 32 32 33 34 34 35 35 35 34 34 34 35 35 37 38 39 39 38 38 38 38 38 38 38
31 31 31 31 31 30 30 30 29 29 29 28 28 29 29 29 30 30 31 31 31 31 31 32 33 34 35 34 34 33 34 34 34 36 38 39 39 39 39 39 38 38 38 38
31 31 31 30 30 29 29 29 29 29 29 29 28 29 29 28 29 29 29 30 30 30 30 31 32 33 33 34 33 33 33 34 35 35 37 38 39 39 39 38 38 38 38 38
30 30 30 30 29 29 29 28 28 27 27 27 27 27 27 27 27 27 28 28 28 29 29 30 31 32 32 33 33 33 33 34 34 33 35 36 37 37 37 37 37 37 36 36
28 28 28 28 28 28 28 27 27 27 26 26 26 26 26 25 25 26 26 26 26 27 28 29 30 30 31 32 33 33 33 33 33 34 34 35 36 36 36 36 35 35 35 35
26 26 26 26 26 26 26 26 26 25 25 25 25 25 24 24 24 24 24 25 25 26 27 28 28 29 30 31 32 32 32 32 32 33 33 33 35 35 35 35 34 34 34 34
26 26 26 26 25 25 24 24 24 25 24 24 24 23 23 22 23 23 23 23 23 24 25 26 27 28 28 28 29 31 32 32 31 31 32 32 33 35 34 34 33 33 32 32
26 26 26 25 25 24 23 23 23 23 23 23 23 22 22 22 22 22 21 21 21 22 23 24 25 26 27 27 28 29 30 31 30 29 30 30 32 33 34 34 33 31 31 31
25 24 24 24 24 23 22 21 21 21 21 21 21 20 20 20 20 20 19 19 20 21 21 22 22 23 24 25 26 28 29 30 29 28 28 29 30 31 32 31 31 31 31 31
23 23 23 23 22 21 20 20 20 19 19 19 19 18 18 17 17 17 17 17 19 19 20 20 21 21 22 23 24 25 27 28 28 28 27 27 28 30 30 30 29 29 30 29
Wind_Direction
283 282 281 280 279 278 276 275 273 272 271 272 268 266 266 266 265 261 258 254 250 248 247 245 244 242 241 238 237 237 237 234 233 231 231 231 232 235 236 236 238 240 242 244
282 281 280 279 279 279 278 277 275 273 273 272 270 267 266 265 263 260 258 256 253 250 249 247 244 242 241 240 238 238 238 236 235 233 232 231 232 233 235 237 238 240 242 244
283 281 279 280 283 282 280 279 277 276 276 273 271 268 266 265 263 262 259 256 254 252 250 249 246 244 242 240 239 237 237 236 235 234 233 232 232 233 235 237 238 240 242 244
284 283 281 286 284 282 280 279 278 277 275 273 271 270 267 265 263 262 261 258 255 253 251 250 248 246 244 243 240 238 237 237 236 234 233 233 233 235 235 237 238 240 241 243
284 285 285 285 286 285 282 279 279 277 275 273 271 270 267 265 263 263 261 259 256 253 251 249 248 247 246 244 241 240 239 238 236 235 233 234 234 235 235 237 239 240 242 244
283 285 286 289 287 285 282 281 279 276 275 274 273 270 268 264 262 262 262 260 256 253 251 249 248 246 245 244 241 239 238 238 237 236 235 235 234 235 235 236 238 241 242 243
283 284 285 288 287 285 283 284 281 278 276 275 274 272 269 265 262 260 260 260 257 253 251 250 248 246 245 244 241 240 240 239 237 237 236 235 235 235 236 236 238 239 241 242
282 283 287 287 285 283 284 282 281 279 277 275 273 271 269 266 263 260 259 258 257 254 252 251 249 247 246 244 242 240 240 239 238 237 236 237 236 236 237 238 238 239 241 242
280 282 285 286 285 284 283 282 280 279 278 276 273 270 268 265 263 261 259 258 256 255 252 252 251 249 247 245 243 241 240 239 237 236 236 237 237 237 237 237 238 238 239 241
279 281 283 283 283 283 283 282 280 278 278 276 274 272 269 264 262 260 259 258 256 255 253 252 252 251 249 246 243 241 239 237 236 235 235 235 235 236 237 237 237 238 239 240
279 281 281 282 282 283 282 281 281 279 277 275 273 272 269 265 263 261 258 257 256 254 253 252 251 250 249 246 243 241 239 236 235 235 234 234 235 236 236 237 238 238 239 241
280 281 281 283 284 284 284 282 281 279 278 275 273 270 267 264 263 261 258 256 255 254 253 252 251 249 247 245 242 242 239 236 234 233 233 234 235 235 235 236 237 238 239 240
280 281 281 283 284 285 284 282 281 280 279 276 273 269 265 263 263 262 259 256 255 253 253 252 251 249 246 244 243 241 238 236 235 234 233 233 234 235 235 236 236 238 239 240
280 281 282 283 284 283 282 281 281 280 278 276 272 267 264 263 261 261 259 256 254 253 251 251 250 249 245 243 242 240 238 236 236 235 233 233 234 235 235 235 236 237 237 240
279 280 282 284 284 283 283 282 281 279 276 274 271 268 265 263 261 260 258 255 253 252 251 250 248 247 245 242 241 239 237 235 235 235 233 233 233 234 234 235 235 235 236 238
279 281 283 285 285 284 283 282 280 278 275 273 271 269 267 265 263 259 258 256 253 251 251 250 247 245 244 242 240 238 237 236 235 234 232 232 233 232 232 233 233 233 235 237
278 280 282 283 284 283 283 282 279 276 274 273 272 270 269 267 265 262 259 257 253 251 250 249 247 244 242 241 240 238 236 236 235 233 232 231 230 232 232 232 232 233 233 234
278 279 280 281 282 282 283 281 278 276 275 274 273 272 270 268 265 262 260 257 254 252 250 248 246 244 242 241 240 238 237 236 234 232 233 231 230 230 231 232 232 233 234 235
276 277 279 280 281 281 280 279 277 275 275 274 274 272 270 268 267 263 260 257 256 253 250 247 245 244 242 241 240 237 236 235 235 234 233 233 230 230 231 232 232 232 233 235
276 277 278 279 280 280 278 277 275 275 274 274 274 273 271 269 267 264 261 259 257 254 250 248 245 243 241 240 239 238 237 236 235 234 233 232 230 230 230 230 232 233 236 235
277 277 278 280 280 279 277 276 275 275 274 274 275 275 273 269 267 264 262 260 257 254 251 248 246 243 240 239 239 237 236 234 233 232 231 229 227 227 228 229 229 231 233 232
278 279 280 280 280 278 276 275 275 274 274 274 275 275 274 270 267 264 263 261 257 253 250 248 246 244 242 239 237 235 232 232 231 230 229 227 226 226 228 229 230 231 232 231
279 279 279 280 281 280 277 275 275 275 275 274 274 274 273 270 267 266 264 260 256 252 249 247 245 243 242 239 236 233 231 230 229 227 228 227 226 226 227 228 228 228 230 231
279 279 279 279 280 280 278 276 275 275 275 275 274 273 271 269 268 267 264 259 254 250 248 246 244 242 239 238 236 232 229 228 226 226 226 225 224 225 225 226 225 226 226 228
280 279 278 278 278 278 277 275 275 275 274 274 273 272 270 269 267 265 263 258 253 249 246 243 242 240 238 238 235 230 227 226 226 225 225 223 222 222 222 224 225 224 225 225
280 278 277 277 277 277 276 276 274 273 272 272 272 273 271 269 266 264 261 256 251 246 243 241 239 237 235 232 229 226 224 223 223 223 222 221 219 219 221 224 223 223 223 223
280 279 278 278 278 276 275 275 273 272 271 272 272 273 271 268 264 261 257 252 247 242 240 238 236 232 229 225 223 221 221 220 218 217 218 219 219 220 222 220 220 221 221 223
Height
5539 5538 5535 5533 5534 5533 5531 5529 5527 5528 5527 5529 5528 5527 5527 5528 5528 5530 5531 5533 5535 5538 5541 5545 5549 5553 5557 5561 5566 5572 5577 5584 5590 5597 5604 5611 5618 5625 5630 5637 5643 5649 5654 5658
5529 5528 5525 5523 5525 5523 5522 5520 5518 5517 5518 5520 5518 5517 5518 5518 5518 5520 5521 5523 5525 5528 5531 5534 5538 5542 5546 5550 5555 5560 5566 5572 5578 5584 5592 5599 5606 5612 5619 5625 5631 5637 5642 5647
5518 5517 5513 5514 5518 5514 5512 5510 5509 5507 5509 5508 5507 5507 5508 5508 5509 5510 5511 5513 5515 5517 5520 5523 5526 5530 5534 5539 5544 5549 5554 5560 5566 5573 5579 5587 5593 5600 5606 5613 5619 5625 5631 5636
5507 5507 5502 5509 5507 5504 5501 5500 5499 5497 5497 5497 5496 5497 5497 5498 5498 5499 5500 5502 5504 5506 5509 5512 5515 5519 5523 5527 5531 5537 5542 5548 5554 5560 5567 5574 5581 5588 5594 5601 5607 5613 5618 5624
5497 5494 5492 5497 5497 5493 5490 5490 5490 5487 5487 5486 5486 5486 5487 5487 5487 5489 5490 5492 5493 5495 5498 5501 5504 5507 5511 5515 5520 5524 5530 5535 5542 5548 5555 5562 5569 5576 5582 5588 5595 5600 5606 5612
5487 5483 5482 5488 5485 5482 5480 5479 5480 5477 5476 5476 5475 5476 5478 5477 5477 5479 5480 5481 5483 5485 5487 5490 5493 5496 5500 5504 5508 5513 5518 5523 5529 5535 5542 5549 5556 5563 5570 5576 5583 5588 5594 5600
5477 5472 5472 5478 5474 5471 5471 5470 5468 5466 5465 5465 5465 5465 5466 5466 5467 5468 5469 5471 5472 5474 5477 5479 5482 5485 5489 5493 5497 5501 5506 5511 5517 5523 5530 5536 5544 5551 5557 5564 5570 5576 5582 5588
5467 5464 5467 5466 5463 5461 5460 5458 5457 5455 5455 5455 5455 5454 5455 5455 5456 5457 5458 5460 5462 5464 5466 5469 5471 5474 5478 5482 5486 5490 5495 5500 5505 5511 5517 5524 5531 5537 5544 5551 5557 5563 5569 5575
5458 5458 5457 5454 5452 5450 5448 5447 5446 5444 5444 5444 5443 5443 5444 5445 5445 5446 5448 5449 5451 5453 5455 5458 5460 5463 5467 5471 5474 5479 5483 5488 5493 5499 5505 5512 5518 5525 5531 5538 5544 5551 5557 5563
5447 5448 5447 5444 5441 5440 5438 5436 5435 5434 5434 5433 5432 5433 5433 5434 5435 5436 5438 5439 5440 5442 5445 5448 5450 5452 5456 5459 5463 5467 5472 5477 5482 5487 5494 5500 5506 5513 5519 5526 5532 5538 5544 5551
5436 5437 5435 5434 5431 5429 5427 5425 5424 5423 5423 5422 5422 5422 5422 5423 5424 5426 5427 5429 5430 5432 5434 5437 5439 5442 5445 5448 5452 5456 5461 5466 5471 5476 5482 5489 5495 5501 5507 5514 5520 5526 5532 5538
5426 5427 5423 5422 5421 5419 5416 5415 5414 5413 5412 5412 5411 5412 5412 5413 5414 5415 5416 5418 5419 5421 5424 5426 5429 5432 5435 5437 5441 5445 5450 5454 5459 5465 5471 5477 5483 5489 5494 5501 5507 5513 5519 5525
5416 5415 5412 5411 5410 5408 5406 5405 5404 5403 5402 5401 5401 5401 5401 5403 5404 5405 5406 5407 5409 5411 5413 5415 5418 5421 5424 5427 5431 5434 5439 5443 5448 5454 5460 5466 5471 5477 5483 5489 5495 5501 5506 5512
5405 5403 5402 5401 5399 5398 5396 5395 5394 5393 5392 5391 5390 5391 5391 5392 5393 5395 5396 5397 5398 5400 5403 5405 5407 5410 5413 5417 5420 5424 5428 5433 5438 5443 5449 5455 5460 5466 5472 5478 5484 5489 5495 5500
5395 5393 5391 5390 5389 5387 5386 5385 5384 5383 5382 5381 5381 5381 5381 5382 5383 5384 5385 5386 5388 5390 5392 5395 5397 5400 5403 5406 5410 5414 5418 5423 5428 5433 5438 5444 5449 5455 5461 5467 5473 5479 5484 5489
5385 5383 5382 5380 5379 5378 5376 5375 5374 5373 5372 5372 5371 5371 5372 5372 5373 5374 5375 5376 5378 5380 5382 5385 5387 5390 5393 5396 5400 5404 5409 5413 5418 5423 5428 5434 5439 5445 5451 5457 5463 5469 5474 5479
5374 5373 5372 5371 5370 5368 5367 5365 5364 5363 5363 5362 5362 5362 5362 5362 5363 5364 5365 5366 5368 5370 5372 5374 5377 5380 5383 5387 5391 5395 5399 5404 5408 5413 5418 5424 5429 5435 5441 5447 5453 5459 5464 5469
5364 5363 5362 5361 5360 5359 5357 5356 5355 5354 5353 5353 5353 5352 5352 5352 5353 5354 5355 5356 5358 5360 5362 5364 5367 5370 5374 5377 5381 5385 5389 5394 5398 5403 5408 5414 5420 5426 5431 5437 5443 5449 5454 5459
5355 5354 5353 5352 5350 5349 5348 5347 5346 5345 5344 5344 5344 5343 5343 5343 5343 5344 5345 5346 5348 5350 5352 5354 5357 5360 5364 5367 5371 5375 5380 5384 5389 5394 5399 5404 5410 5416 5422 5428 5433 5439 5444 5449
5345 5344 5343 5342 5341 5339 5338 5337 5337 5336 5335 5335 5334 5334 5334 5334 5334 5334 5335 5336 5338 5340 5342 5344 5347 5350 5354 5358 5362 5366 5370 5375 5379 5384 5389 5395 5401 5407 5412 5418 5424 5429 5435 5440
5336 5335 5334 5332 5331 5330 5329 5328 5328 5327 5327 5326 5325 5325 5325 5325 5325 5325 5326 5328 5329 5330 5333 5335 5338 5341 5344 5348 5352 5357 5361 5366 5370 5375 5380 5385 5391 5397 5403 5408 5414 5420 5425 5431
5327 5326 5325 5323 5322 5321 5320 5320 5319 5319 5318 5317 5317 5316 5316 5316 5316 5317 5317 5319 5320 5321 5324 5326 5329 5332 5335 5339 5343 5348 5352 5357 5361 5366 5371 5377 5383 5388 5394 5400 5405 5411 5416 5422
5318 5317 5316 5315 5313 5312 5312 5311 5310 5310 5310 5309 5308 5308 5308 5308 5308 5309 5309 5310 5311 5313 5315 5318 5320 5323 5327 5330 5335 5339 5344 5348 5353 5358 5363 5368 5374 5380 5386 5391 5397 5402 5408 5413
5310 5309 5308 5306 5305 5304 5304 5303 5302 5302 5301 5301 5300 5300 5300 5300 5300 5301 5301 5302 5303 5305 5307 5310 5312 5315 5319 5322 5326 5331 5336 5340 5345 5350 5355 5360 5365 5371 5377 5383 5389 5394 5400 5405
5301 5300 5299 5298 5297 5297 5296 5295 5295 5294 5294 5293 5293 5293 5293 5293 5293 5293 5294 5295 5296 5298 5300 5302 5305 5308 5311 5315 5319 5323 5328 5333 5338 5343 5348 5353 5358 5364 5370 5375 5381 5387 5392 5398
5294 5292 5291 5291 5290 5289 5289 5288 5288 5288 5287 5287 5287 5286 5286 5285 5286 5286 5287 5288 5289 5291 5293 5296 5298 5301 5304 5308 5312 5316 5321 5326 5331 5336 5341 5346 5351 5357 5362 5368 5374 5379 5385 5390
5286 5285 5284 5283 5283 5282 5282 5281 5281 5281 5281 5280 5280 5280 5279 5279 5280 5280 5281 5282 5283 5285 5287 5290 5292 5295 5298 5302 5306 5310 5314 5319 5325 5330 5335 5340 5345 5351 5356 5362 5367 5372 5377 5383